Tracking 22455 objects as of 8-Mar-2021
HD Live streaming from Space Station
objects crossing your sky now

THORAD AGENA D DEB

Track THORAD AGENA D DEB now!
10-day predictions


NORAD ID: 4205
Int'l Code: 1969-082BU
Perigee: 761.0 km
Apogee: 860.9 km
Inclination: 70.1 °
Period: 101.0 minutes
Semi major axis: 7181 km
RCS: 0.0519 m2 (small)
Launch date: September 30, 1969
Source: United States (US)
Launch site: AIR FORCE WESTERN TEST RANGE (AFWTR)

Note: This is SATELLITE DEBRIS
aabbcc
Your satellite tracking list
Your tracking list is empty




NASA's NSSDC Master Catalog

Two Line Element Set (TLE):
1 04205U 69082BU  21067.60212271  .00000115  00000-0  69831-4 0  9991
2 04205  70.0595 129.4726 0069534 304.1304  55.3235 14.26395326826541
Source of the keplerian elements: AFSPC